Weather History for Elkins, WV

Change the Weather History Date:

Wednesday, January 30, 2013

  Actual Average Record
Temperature  
Mean Temperature 54 °F 30 °F  
Max Temperature 70 °F 40 °F 71 °F (1916)
Min Temperature 37 °F 20 °F -11 °F (2014)
Degree Days  
Heating Degree Days 11 35  
Month to date heating degree days 961 1076  
Since 1 July heating degree days 3223 3367  
Cooling Degree Days 0 0  
Month to date cooling degree days 0 0  
Year to date cooling degree days 0 0  
Growing Degree Days 4 (Base 50)    
Moisture  
Dew Point 49 °F    
Average Humidity 77    
Maximum Humidity 100    
Minimum Humidity 53    
Precipitation  
Precipitation 1.32 in 0.10 in 1.32 in (2013)
Month to date precipitation 4.30 3.12  
Year to date precipitation 4.30 3.12  
Snow  
Snow 0.00 in - - ()
Month to date snowfall 8.5  
Since 1 September snowfall 36.0  
Snow Depth -    
Sea Level Pressure  
Sea Level Pressure 29.61 in    
Wind  
Wind Speed 8 mph (South)    
Max Wind Speed 37 mph    
Max Gust Speed 46 mph    
Visibility 7 miles    
Events Rain    
T = Trace of Precipitation, MM = Missing Value Source: NWS Daily Summary

Daily Weather History Graph

Daily Weather History Graph

Search for Another Location

Airport:

Trip Planner

Search our weather history database for the weather conditions in past years. The results will help you decide how hot, cold, wet, or windy it might be!

Date:

Astronomy

Jan. 30, 2013 Rise Set
Actual Time 7:27 AM EST 5:38 PM EST
Civil Twilight 6:58 AM EST 6:07 PM EST
Nautical Twilight 6:26 AM EST 6:39 PM EST
Astronomical Twilight 5:55 AM EST 7:10 PM EST
Moon 9:32 PM EST (1/30) 8:56 AM EST (1/30)
Length of Visible Light 11h 08m
Length of Day
10h 11m
Waning Gibbous, 88% of the Moon is Illuminated
Jan 30
Waning Gibbous
Feb 3
Last Quarter
Feb 10
New
Feb 17
First Quarter
Feb 25
Full

Hourly Weather History & Observations

Time (EST) Temp. Windchill Dew Point Humidity Pressure Visibility Wind Dir Wind Speed Gust Speed Precip Events Conditions
12:12 AM 37.4 °F - 37.4 °F 100% 29.91 in 3.0 mi Calm Calm - N/A   Clear
12:51 AM 39.0 °F - 37.0 °F 93% 29.90 in 4.0 mi Calm Calm - N/A   Clear
1:51 AM 43.0 °F 39.5 °F 39.9 °F 89% 29.85 in 9.0 mi SSE 5.8 mph - N/A   Clear
2:51 AM 57.9 °F - 46.9 °F 67% 29.81 in 10.0 mi SSE 9.2 mph - 0.01 in   Clear
3:51 AM 57.9 °F - 48.0 °F 70% 29.76 in 10.0 mi SE 8.1 mph - N/A   Clear
4:51 AM 62.1 °F - 51.1 °F 67% 29.72 in 10.0 mi South 9.2 mph - 0.01 in   Partly Cloudy
5:51 AM 64.0 °F - 50.0 °F 60% 29.70 in 10.0 mi South 15.0 mph 25.3 mph N/A   Clear
6:51 AM 64.9 °F - 50.0 °F 58% 29.67 in 10.0 mi South 9.2 mph 17.3 mph N/A   Clear
7:51 AM 64.9 °F - 50.0 °F 58% 29.65 in 10.0 mi South 18.4 mph 29.9 mph N/A   Clear
8:51 AM 66.9 °F - 51.1 °F 57% 29.62 in 10.0 mi South 16.1 mph 31.1 mph N/A   Clear
9:51 AM 69.1 °F - 52.0 °F 54% 29.62 in 10.0 mi South 17.3 mph 32.2 mph N/A   Partly Cloudy
10:51 AM 69.1 °F - 52.0 °F 54% 29.60 in 10.0 mi South 16.1 mph 29.9 mph N/A   Mostly Cloudy
11:30 AM 64.4 °F - 53.6 °F 68% 29.65 in 2.0 mi West 33.4 mph 46.0 mph 0.00 in Rain Light Rain
11:37 AM 57.2 °F - 51.8 °F 82% 29.68 in 1.0 mi West 20.7 mph 46.0 mph 0.04 in Rain Heavy Rain
11:41 AM 57.2 °F - 51.8 °F 82% 29.68 in 2.0 mi West 21.9 mph 41.4 mph 0.06 in Rain Heavy Rain
11:51 AM 57.0 °F - 51.1 °F 81% 29.70 in 4.0 mi West 16.1 mph 32.2 mph 0.08 in Rain Rain
12:18 PM 57.2 °F - 51.8 °F 82% 29.69 in 5.0 mi South 6.9 mph 17.3 mph 0.02 in Rain Light Rain
12:46 PM 57.2 °F - 51.8 °F 82% 29.68 in 7.0 mi South 4.6 mph - 0.05 in Rain Light Rain
12:51 PM 55.9 °F - 51.1 °F 84% 29.70 in 7.0 mi South 3.5 mph - 0.05 in Rain Light Rain
1:51 PM 55.9 °F - 53.1 °F 90% 29.64 in 8.0 mi Calm Calm - 0.03 in Rain Light Rain
2:51 PM 55.0 °F - 53.1 °F 93% 29.58 in 5.0 mi Calm Calm - 0.08 in Rain Rain
3:51 PM 55.0 °F - 52.0 °F 89% 29.58 in 4.0 mi SE 4.6 mph - 0.12 in Rain Rain
4:51 PM 54.0 °F - 52.0 °F 93% 29.55 in 6.0 mi SE 4.6 mph - 0.10 in Rain Rain
4:58 PM 53.6 °F - 51.8 °F 94% 29.54 in 6.0 mi SSE 3.5 mph - 0.01 in Rain Light Rain
5:51 PM 53.1 °F - 51.1 °F 93% 29.50 in 6.0 mi South 3.5 mph - 0.09 in Rain Rain
6:51 PM 53.1 °F - 51.1 °F 93% 29.45 in 7.0 mi SSE 3.5 mph - 0.11 in Rain Rain
7:51 PM 54.0 °F - 50.0 °F 86% 29.39 in 9.0 mi SSE 3.5 mph - 0.10 in Rain Light Rain
8:51 PM 54.0 °F - 51.1 °F 90% 29.34 in 4.0 mi SSE 4.6 mph - 0.15 in Rain Heavy Rain
9:32 PM 51.8 °F - 46.4 °F 82% 29.37 in 6.0 mi West 17.3 mph 26.5 mph 0.10 in Rain Light Rain
9:47 PM 50.0 °F - 44.6 °F 82% 29.38 in 5.0 mi West 9.2 mph 24.2 mph 0.12 in Rain Rain
9:51 PM 50.0 °F - 45.0 °F 83% 29.37 in 5.0 mi West 9.2 mph 20.7 mph 0.13 in Rain Rain
10:22 PM 50.0 °F - 44.6 °F 82% 29.37 in 8.0 mi SSE 6.9 mph - 0.07 in Rain Light Rain
10:51 PM 50.0 °F - 45.0 °F 83% 29.35 in 6.0 mi South 5.8 mph - 0.11 in Rain Heavy Rain
11:51 PM 48.9 °F - 45.0 °F 86% 29.33 in 6.0 mi Calm Calm - 0.14 in Rain Rain